TimeCST,TemperatureF,Dew PointF,Humidity,Sea Level PressureIn,VisibilityMPH,Wind Direction,Wind SpeedMPH,Gust SpeedMPH,PrecipitationIn,Events,Conditions,WindDirDegrees,DateUTC
12:15 AM,26.6,19.4,74,30.37,10.0,North,8.1,-,N/A,,Clear,350,2012-12-05 06:15:00
12:35 AM,24.8,19.4,80,30.36,10.0,North,8.1,-,N/A,,Clear,360,2012-12-05 06:35:00
12:55 AM,26.6,19.4,74,30.36,10.0,North,6.9,-,N/A,,Clear,10,2012-12-05 06:55:00
1:15 AM,24.8,19.4,80,30.37,10.0,North,4.6,-,N/A,,Clear,360,2012-12-05 07:15:00
1:55 AM,24.8,19.4,80,30.38,10.0,North,5.8,-,N/A,,Clear,350,2012-12-05 07:55:00
2:15 AM,23.0,19.4,86,30.38,10.0,North,4.6,-,N/A,,Clear,350,2012-12-05 08:15:00
2:35 AM,23.0,17.6,80,30.38,10.0,North,5.8,-,N/A,,Clear,10,2012-12-05 08:35:00
2:55 AM,21.2,17.6,86,30.38,10.0,NNE,5.8,-,N/A,,Clear,30,2012-12-05 08:55:00
3:15 AM,21.2,17.6,86,30.38,10.0,NE,6.9,-,N/A,,Clear,40,2012-12-05 09:15:00
3:35 AM,21.2,17.6,86,30.37,10.0,NE,6.9,-,N/A,,Clear,40,2012-12-05 09:35:00
3:55 AM,21.2,17.6,86,30.37,10.0,NE,6.9,-,N/A,,Clear,50,2012-12-05 09:55:00
4:15 AM,23.0,17.6,80,30.36,10.0,ENE,5.8,-,N/A,,Clear,60,2012-12-05 10:15:00
4:35 AM,23.0,17.6,80,30.38,10.0,ENE,5.8,-,N/A,,Clear,70,2012-12-05 10:35:00
4:55 AM,23.0,17.6,80,30.38,10.0,ENE,5.8,-,N/A,,Clear,60,2012-12-05 10:55:00
5:15 AM,21.2,17.6,86,30.38,10.0,East,5.8,-,N/A,,Clear,80,2012-12-05 11:15:00
5:35 AM,21.2,17.6,86,30.39,10.0,ENE,6.9,-,N/A,,Clear,70,2012-12-05 11:35:00
5:55 AM,21.2,17.6,86,30.38,10.0,ENE,6.9,-,N/A,,Clear,70,2012-12-05 11:55:00
6:15 AM,21.2,15.8,80,30.38,10.0,ENE,5.8,-,N/A,,Clear,70,2012-12-05 12:15:00
6:35 AM,23.0,17.6,80,30.38,10.0,East,5.8,-,N/A,,Clear,80,2012-12-05 12:35:00
6:55 AM,23.0,15.8,74,30.38,10.0,East,8.1,-,N/A,,Clear,80,2012-12-05 12:55:00
8:35 AM,28.4,17.6,64,30.36,10.0,East,11.5,17.3,N/A,,Clear,90,2012-12-05 14:35:00
8:55 AM,28.4,17.6,64,30.35,10.0,East,11.5,-,N/A,,Clear,100,2012-12-05 14:55:00
9:15 AM,28.4,17.6,64,30.36,10.0,East,13.8,-,N/A,,Clear,100,2012-12-05 15:15:00
9:35 AM,30.2,17.6,60,30.36,10.0,ESE,13.8,-,N/A,,Clear,110,2012-12-05 15:35:00
9:55 AM,32.0,17.6,55,30.37,10.0,ESE,13.8,-,N/A,,Clear,110,2012-12-05 15:55:00
10:15 AM,32.0,19.4,60,30.37,10.0,SE,11.5,-,N/A,,Clear,130,2012-12-05 16:15:00
10:35 AM,32.0,19.4,60,30.37,10.0,SE,13.8,-,N/A,,Clear,130,2012-12-05 16:35:00
10:55 AM,32.0,19.4,60,30.35,10.0,ESE,13.8,-,N/A,,Clear,120,2012-12-05 16:55:00
11:15 AM,33.8,17.6,52,30.34,10.0,SE,13.8,-,N/A,,Clear,140,2012-12-05 17:15:00
11:35 AM,35.6,19.4,52,30.31,10.0,SE,17.3,-,N/A,,Clear,140,2012-12-05 17:35:00
11:55 AM,35.6,17.6,48,30.31,10.0,SSE,15.0,20.7,N/A,,Clear,150,2012-12-05 17:55:00
12:15 PM,35.6,19.4,52,30.31,10.0,SE,13.8,-,N/A,,Clear,140,2012-12-05 18:15:00
12:35 PM,37.4,19.4,48,30.29,10.0,SE,13.8,-,N/A,,Clear,140,2012-12-05 18:35:00
12:55 PM,37.4,17.6,45,30.27,10.0,SE,15.0,19.6,N/A,,Clear,140,2012-12-05 18:55:00
1:15 PM,39.2,19.4,45,30.26,10.0,SE,15.0,-,N/A,,Clear,130,2012-12-05 19:15:00
1:35 PM,39.2,17.6,42,30.25,10.0,SSE,18.4,-,N/A,,Clear,150,2012-12-05 19:35:00
1:55 PM,39.2,17.6,42,30.25,10.0,SSE,16.1,21.9,N/A,,Clear,150,2012-12-05 19:55:00
2:15 PM,41.0,17.6,39,30.23,10.0,SE,16.1,-,N/A,,Clear,140,2012-12-05 20:15:00
2:35 PM,41.0,19.4,42,30.23,10.0,SE,16.1,-,N/A,,Clear,140,2012-12-05 20:35:00
2:55 PM,39.2,19.4,45,30.22,10.0,SE,17.3,-,N/A,,Clear,130,2012-12-05 20:55:00
3:15 PM,37.4,19.4,48,30.21,10.0,SE,16.1,-,N/A,,Clear,130,2012-12-05 21:15:00
3:35 PM,37.4,19.4,48,30.20,10.0,SE,17.3,-,N/A,,Clear,130,2012-12-05 21:35:00
3:55 PM,37.4,19.4,48,30.20,10.0,SE,13.8,-,N/A,,Clear,130,2012-12-05 21:55:00
4:15 PM,37.4,19.4,48,30.19,10.0,SE,13.8,-,N/A,,Clear,130,2012-12-05 22:15:00
4:35 PM,35.6,19.4,52,30.18,10.0,SE,15.0,-,N/A,,Clear,130,2012-12-05 22:35:00
4:55 PM,35.6,19.4,52,30.18,10.0,SE,15.0,21.9,N/A,,Clear,130,2012-12-05 22:55:00
5:15 PM,35.6,21.2,56,30.18,10.0,SE,16.1,-,N/A,,Clear,130,2012-12-05 23:15:00
5:35 PM,33.8,21.2,60,30.16,10.0,SE,18.4,-,N/A,,Clear,130,2012-12-05 23:35:00
5:55 PM,33.8,21.2,60,30.16,10.0,SE,18.4,24.2,N/A,,Clear,130,2012-12-05 23:55:00
6:15 PM,33.8,21.2,60,30.15,10.0,SE,18.4,24.2,N/A,,Clear,130,2012-12-06 00:15:00
6:35 PM,33.8,21.2,60,30.14,10.0,SE,19.6,25.3,N/A,,Clear,130,2012-12-06 00:35:00
6:55 PM,33.8,21.2,60,30.14,10.0,SE,18.4,-,N/A,,Clear,140,2012-12-06 00:55:00
7:15 PM,33.8,21.2,60,30.12,10.0,SE,19.6,24.2,N/A,,Clear,140,2012-12-06 01:15:00
7:35 PM,33.8,21.2,60,30.12,10.0,SE,18.4,-,N/A,,Clear,130,2012-12-06 01:35:00
7:55 PM,33.8,21.2,60,30.11,10.0,SE,17.3,-,N/A,,Clear,140,2012-12-06 01:55:00
8:15 PM,33.8,21.2,60,30.09,10.0,SE,20.7,-,N/A,,Clear,140,2012-12-06 02:15:00
8:35 PM,33.8,21.2,60,30.09,10.0,SE,18.4,-,N/A,,Clear,140,2012-12-06 02:35:00
8:55 PM,35.6,21.2,56,30.09,10.0,SE,17.3,-,N/A,,Clear,140,2012-12-06 02:55:00
9:15 PM,35.6,23.0,60,30.09,10.0,SE,16.1,-,N/A,,Clear,140,2012-12-06 03:15:00
9:35 PM,35.6,24.8,65,30.08,10.0,SSE,17.3,-,N/A,,Clear,150,2012-12-06 03:35:00
9:55 PM,37.4,26.6,65,30.07,10.0,SSE,18.4,24.2,N/A,,Clear,150,2012-12-06 03:55:00
10:15 PM,37.4,26.6,65,30.06,10.0,SE,21.9,-,N/A,,Clear,140,2012-12-06 04:15:00
10:35 PM,37.4,26.6,65,30.06,10.0,SSE,17.3,24.2,N/A,,Clear,150,2012-12-06 04:35:00
10:55 PM,37.4,28.4,70,30.06,10.0,SSE,17.3,-,N/A,,Clear,150,2012-12-06 04:55:00
11:15 PM,37.4,28.4,70,30.05,10.0,SE,15.0,-,N/A,,Clear,140,2012-12-06 05:15:00
11:35 PM,37.4,28.4,70,30.06,10.0,SSE,15.0,-,N/A,,Clear,150,2012-12-06 05:35:00
11:55 PM,37.4,30.2,75,30.04,10.0,SE,16.1,-,N/A,,Clear,140,2012-12-06 05:55:00